View from above orbital plane
|
View from above satellite
|
Ground track
|
The orbit data is extracted from the following two-line orbital elements,
1 19650U 88102B 21065.67716151 .00000201 00000-0 12623-3 0 9998
2 19650 71.0006 38.5027 0016579 274.1377 85.7851 14.15799364667991
Epoch (UTC): | 06 March 2021 16:15:06 |
Eccentricity: | 0.0016579 |
inclination: | 71.0006° |
perigee height: | 827 km |
apogee height: | 851 km |
right ascension of ascending node: | 38.5027° |
argument of perigee: | 274.1377° |
revolutions per day: | 14.15799364 |
mean anomaly at epoch: | 85.7851° |
orbit number at epoch: | 66799 |
The dashed part of the orbit path shows where the satellite is in the earth's shadow,
|
|